Hourly Data Report for September 16, 2017

All times are specified in Local Standard Time (LST). Add 1 hour to adjust for Daylight Saving Time where and when it is observed.

CORAL HARBOUR A
NUNAVUT

64°11'36.000" N
83°21'34.000" W
62.20 m
2301002
71915
YZS

Download Data

Hourly Data (September 2017)
Hourly Data Report for September 16, 2017
Temp Definition
°C
Dew Point Temp Definition
°C
Rel Hum Definition
%
Wind Dir Definition
10's deg

Wind Spd Definition
km/h
Visibility Definition
km
Stn Press Definition
kPa
Hmdx Definition


Wind Chill Definition


Weather Definition


TIME
00:00 Legend Double Dagger -1.1 -2.4 91 5 4 24.1 100.75   -2 LegendNANA
01:00 Legend Double Dagger -1.0 -2.3 91 6 10 24.1 100.77   -5 Clear
02:00 Legend Double Dagger -2.1 -3.0 93 8 14 24.1 100.79   -7 LegendNANA
03:00 Legend Double Dagger -1.7 -2.6 94 11 6 24.1 100.81   -4 LegendNANA
04:00 Legend Double Dagger -1.5 -2.2 94 9 10 24.1 100.82   -5 Clear
05:00 Legend Double Dagger -0.5 -1.3 94 7 16 24.1 100.82   -5 LegendNANA
06:00 Legend Double Dagger 0.1 -0.6 95 8 17 24.1 100.83     LegendNANA
07:00 Legend Double Dagger 0.6 -0.2 94 6 9 24.1 100.84     Cloudy
08:00 Legend Double Dagger 0.9 0.6 98 8 21 1.6 100.85     Drizzle,Fog
09:00 Legend Double Dagger 1.4 1.2 98 6 16 1.6 100.88     Drizzle,Fog
10:00 Legend Double Dagger 2.6 2.2 97 7 12 9.7 100.88     Drizzle,Fog
11:00 Legend Double Dagger 2.9 2.3 96 9 22 9.7 100.91     Drizzle,Fog
12:00 Legend Double Dagger 3.6 2.9 95 7 12 9.7 100.92     Drizzle,Fog
13:00 Legend Double Dagger 4.5 3.4 93 16 14 24.1 100.93     Mostly Cloudy
14:00 Legend Double Dagger 6.6 3.9 83 8 13 24.1 100.96     LegendNANA
15:00 Legend Double Dagger 7.5 3.2 74 7 8 24.1 100.98     LegendNANA
16:00 Legend Double Dagger 7.9 2.5 69 31 4 24.1 101.02     Mainly Clear
17:00 Legend Double Dagger 7.4 4.3 81 17 16 24.1 101.05     LegendNANA
18:00 Legend Double Dagger 5.7 4.1 89 15 16 24.1 101.07     LegendNANA
19:00 Legend Double Dagger 4.4 3.5 94 15 10 24.1 101.10     Clear
20:00 Legend Double Dagger 3.2 3.0 98 9 13 24.1 101.15     LegendNANA
21:00 Legend Double Dagger 2.4 0.6 88 2 4 24.1 101.19     LegendNANA
22:00 Legend Double Dagger 1.9 -0.1 87 3 13 24.1 101.21     Clear
23:00 Legend Double Dagger 1.3 -0.2 90 2 11 24.1 101.23     LegendNANA

Notes on Data Quality.

Legend

  • E = Estimated
  • M = Missing
  • NA = Not Available
  • ‡ = Partner data that is not subject to review by the National Climate Archives
Date modified: